Home > Weather > Arviat > Past weeks

Flag for Canada Weather for the Past 2 Weeks in Arviat, Nunavut, Canada

Now
-8 °F

Light snow. Overcast.


Feels Like: -28 °F
Forecast: -25 / -11 °F
Wind: 14 mph from South

Location: Arviat Airport

Current Time: Feb 7, 2016 at 6:41:00 PM

Latest Report: Feb 7, 2016 at 6:00 PM


Visibility: 4 mi

Pressure: 30.21 "Hg

Humidity: 84%

Dew point: -11 °F

Location of ArviatLocation

Historic Weather in Arviat — Graph

°F

Arviat Temperature Yesterday

Maximum temperature yesterday: -26 °F (at 11:00 PM)
Minimum temperature yesterday: -38 °F (at 7:55 AM)
Average temperature yesterday: -32 °F

High & Low Weather Summary for the Past Weeks

 TemperatureHumidityPressure
High3 °F (Jan 29, 5:00 PM)92% (Jan 24, 1:55 PM)30.22 "Hg (Jan 24, 1:55 PM)
Low-40 °F (Feb 5, 1:00 AM)58% (Feb 4, 11:00 PM)29.39 "Hg (Jan 29, 4:00 PM)
Average-22 °F73%29.94 "Hg
* Reported Jan 23 5:00 PM — Feb 7 5:00 PM, Arviat, Weather by CustomWeather, © 2016

Note: Actual official high and low records may vary slightly from our data, if they occured in-between our weather recording intervals... More about our weather records

Advertising

Arviat Weather History for the Previous 24 Hours

 ConditionsComfort  
Time TempWeatherWind HumidityBarometerVisibility
5:00 PM
Sun, Feb 7
-8 °FLight snow. Passing clouds.12 mph84%30.21 "Hg9 mi
4:00 PM-9 °FSunny.9 mph84%30.21 "Hg9 mi
3:00 PM-9 °FOvercast.12 mph84%30.21 "Hg15 mi
2:00 PM-9 °FOvercast.10 mph84%30.21 "Hg15 mi
1:00 PM-9 °FOvercast.10 mph84%30.21 "Hg15 mi
12:00 PM-9 °FOvercast.10 mph84%30.21 "Hg15 mi
11:00 AM-11 °FPartly sunny.9 mph84%30.21 "Hg15 mi
10:00 AM-13 °FPartly sunny.10 mph83%30.20 "Hg15 mi
9:00 AM-17 °FOvercast.5 mph76%30.20 "Hg15 mi
8:00 AM-20 °FPassing clouds.3 mph75%30.19 "Hg9 mi
7:00 AM-20 °FPassing clouds.2 mph75%30.20 "Hg9 mi
6:00 AM-26 °FClear.2 mph75%30.19 "Hg9 mi
5:00 AM-24 °FPassing clouds.No wind75%30.19 "Hg9 mi
4:00 AM-26 °FClear.No wind82%30.18 "Hg9 mi
3:00 AM-24 °FClear.3 mph75%30.18 "Hg9 mi
2:00 AM-22 °FClear.3 mph75%30.17 "Hg9 mi
1:00 AM-20 °FClear.2 mph75%30.16 "Hg9 mi
12:00 AM-22 °FClear.3 mph75%30.16 "Hg9 mi
11:00 PM
Sat, Feb 6
-26 °FClear.3 mph75%30.15 "Hg9 mi
10:00 PM-29 °FClear.3 mph74%30.15 "Hg9 mi
9:04 PM-29 °FLight snow. Clear.2 mph67%30.15 "Hg9 mi
8:00 PM-27 °FClear.6 mph67%30.14 "Hg9 mi
7:00 PM-27 °FClear.7 mph67%30.15 "Hg8 mi
6:00 PM-31 °FHaze.7 mph74%30.16 "Hg6 mi
Weather by CustomWeather, © 2016

See weather overviewHow to use our weather pages